Temp
-6 -6 -6 -6 -6 -7 -7 -7 -8 -9 -9 -8 -9 -9 -8 -8 -8 -8 -8 -7 -7 -8 -8 -8 -8 -8 -8 -7 -7 -7 -6 -6 -6 -7 -7 -7 -6 -7 -7 -6 -6 -6 -6 -6
-6 -6 -6 -6 -6 -6 -7 -7 -8 -8 -8 -8 -9 -9 -8 -9 -8 -8 -8 -7 -7 -7 -8 -8 -9 -8 -7 -8 -7 -7 -7 -6 -6 -6 -6 -7 -7 -7 -7 -6 -6 -6 -6 -6
-6 -6 -6 -7 -7 -7 -7 -8 -8 -8 -8 -8 -8 -8 -8 -8 -8 -8 -8 -8 -8 -7 -7 -8 -8 -8 -8 -8 -7 -7 -7 -7 -6 -6 -6 -7 -7 -7 -7 -7 -6 -7 -6 -6
-6 -6 -6 -7 -7 -7 -8 -7 -8 -8 -8 -8 -8 -8 -9 -8 -8 -8 -8 -8 -8 -7 -7 -8 -8 -8 -8 -9 -8 -8 -7 -7 -7 -6 -7 -7 -6 -7 -7 -7 -7 -7 -6 -6
-7 -7 -7 -7 -7 -7 -8 -8 -8 -8 -8 -8 -8 -8 -7 -8 -8 -8 -8 -8 -8 -8 -7 -7 -8 -7 -7 -8 -8 -8 -7 -6 -6 -7 -7 -7 -6 -7 -7 -7 -7 -7 -7 -7
-7 -7 -7 -7 -7 -8 -8 -8 -8 -8 -8 -8 -8 -7 -7 -8 -8 -7 -7 -7 -9 -8 -8 -8 -7 -7 -7 -7 -6 -6 -6 -5 -7 -7 -6 -7 -7 -7 -7 -7 -6 -6 -6 -7
-8 -8 -8 -8 -8 -8 -8 -9 -9 -8 -8 -8 -8 -8 -7 -8 -7 -7 -8 -9 -9 -8 -8 -8 -7 -7 -7 -7 -7 -7 -6 -6 -7 -8 -7 -7 -8 -7 -7 -7 -7 -6 -7 -7
-8 -8 -8 -9 -8 -8 -8 -8 -8 -8 -8 -9 -8 -8 -7 -7 -7 -7 -7 -7 -8 -7 -7 -7 -7 -8 -7 -7 -8 -7 -7 -6 -6 -6 -7 -7 -8 -7 -7 -7 -7 -7 -8 -8
-8 -8 -8 -8 -9 -9 -9 -9 -9 -9 -8 -9 -9 -9 -8 -8 -8 -8 -7 -7 -7 -8 -7 -7 -7 -8 -7 -7 -8 -7 -7 -7 -7 -6 -7 -8 -7 -8 -7 -7 -6 -7 -7 -8
-8 -8 -9 -9 -9 -9 -9 -9 -9 -9 -8 -8 -8 -8 -8 -8 -8 -8 -7 -7 -7 -8 -8 -7 -7 -8 -8 -8 -8 -8 -7 -8 -7 -7 -7 -8 -8 -7 -7 -7 -7 -7 -7 -7
-8 -8 -9 -9 -9 -8 -8 -8 -8 -8 -8 -8 -8 -8 -8 -7 -7 -7 -7 -8 -8 -8 -8 -7 -7 -7 -8 -8 -8 -8 -8 -8 -8 -8 -7 -7 -7 -7 -7 -7 -7 -7 -7 -7
-8 -8 -8 -9 -9 -9 -9 -8 -8 -8 -8 -8 -8 -8 -8 -8 -7 -7 -7 -8 -8 -8 -8 -8 -7 -8 -8 -8 -8 -9 -8 -8 -8 -7 -8 -8 -7 -8 -7 -7 -8 -8 -7 -7
-9 -8 -9 -8 -9 -8 -8 -8 -8 -8 -8 -8 -8 -8 -8 -8 -7 -7 -8 -8 -8 -8 -8 -8 -8 -8 -8 -8 -8 -9 -8 -9 -9 -9 -9 -8 -8 -8 -8 -7 -8 -8 -7 -7
-8 -9 -9 -8 -8 -8 -8 -8 -9 -9 -8 -7 -7 -8 -8 -8 -8 -8 -8 -8 -8 -8 -8 -8 -8 -8 -8 -8 -8 -8 -8 -9 -9 -9 -9 -8 -8 -8 -8 -8 -8 -8 -7 -7
-9 -9 -8 -8 -8 -8 -8 -8 -8 -8 -7 -7 -7 -7 -8 -8 -8 -8 -8 -8 -8 -9 -8 -8 -8 -8 -8 -8 -9 -9 -9 -9 -9 -8 -8 -8 -8 -8 -8 -8 -8 -7 -8 -8
-9 -9 -8 -8 -8 -8 -8 -8 -8 -7 -7 -7 -7 -8 -8 -8 -8 -8 -9 -9 -9 -9 -8 -8 -8 -7 -8 -8 -8 -8 -8 -9 -9 -9 -9 -9 -8 -8 -8 -8 -8 -8 -8 -8
-8 -8 -8 -8 -8 -8 -8 -7 -7 -7 -7 -7 -8 -8 -8 -9 -9 -9 -9 -9 -9 -9 -9 -9 -8 -8 -8 -8 -8 -8 -8 -8 -9 -9 -9 -9 -8 -8 -8 -8 -8 -8 -8 -8
-9 -9 -8 -8 -8 -8 -7 -7 -7 -7 -7 -8 -8 -8 -9 -9 -9 -9 -9 -9 -10 -10 -10 -10 -9 -9 -9 -8 -8 -8 -8 -8 -9 -9 -9 -9 -8 -9 -8 -8 -9 -8 -8 -8
-9 -8 -8 -8 -8 -7 -7 -7 -7 -7 -7 -7 -8 -9 -9 -9 -9 -10 -10 -10 -10 -10 -10 -9 -9 -9 -9 -9 -9 -8 -8 -9 -8 -8 -8 -9 -8 -8 -8 -8 -8 -8 -8 -8
-8 -8 -8 -8 -7 -7 -8 -8 -8 -8 -8 -8 -9 -9 -9 -10 -10 -10 -10 -10 -10 -10 -10 -9 -9 -9 -9 -9 -10 -10 -9 -8 -8 -8 -8 -9 -8 -8 -8 -9 -8 -8 -8 -8
-8 -8 -8 -8 -8 -8 -8 -8 -8 -8 -8 -9 -9 -9 -9 -9 -9 -9 -10 -10 -9 -9 -8 -8 -8 -9 -8 -8 -9 -9 -9 -9 -8 -8 -8 -8 -9 -9 -9 -9 -9 -8 -7 -8
-9 -9 -9 -8 -8 -8 -8 -8 -8 -8 -8 -8 -8 -8 -8 -8 -9 -8 -8 -8 -8 -8 -9 -9 -9 -9 -9 -9 -8 -8 -8 -8 -8 -8 -8 -8 -8 -8 -9 -9 -9 -9 -10 -10
-9 -9 -9 -9 -8 -8 -8 -8 -9 -9 -9 -8 -8 -8 -8 -8 -8 -8 -9 -9 -8 -8 -8 -8 -8 -8 -8 -9 -9 -9 -9 -8 -8 -8 -8 -8 -8 -8 -9 -9 -10 -9 -10 -9
-9 -9 -9 -9 -8 -8 -8 -9 -9 -9 -9 -9 -9 -8 -8 -8 -8 -8 -8 -9 -9 -9 -8 -8 -8 -8 -9 -9 -9 -9 -10 -10 -9 -8 -8 -8 -9 -9 -8 -9 -9 -9 -10 -9
-9 -9 -9 -8 -8 -8 -8 -9 -9 -9 -9 -8 -8 -8 -8 -8 -8 -9 -9 -9 -9 -9 -9 -9 -9 -10 -10 -10 -10 -10 -10 -10 -10 -10 -10 -9 -9 -9 -9 -8 -9 -9 -9 -10
-9 -9 -9 -9 -9 -9 -9 -9 -9 -9 -9 -9 -9 -9 -9 -9 -9 -9 -9 -9 -9 -9 -9 -10 -10 -10 -11 -11 -11 -11 -11 -11 -11 -11 -11 -10 -9 -9 -9 -9 -9 -9 -9 -9
Height
5914 5915 5914 5913 5913 5913 5915 5915 5913 5912 5913 5914 5912 5912 5907 5904 5901 5901 5898 5897 5894 5891 5893 5890 5887 5888 5887 5890 5890 5892 5893 5893 5894 5897 5898 5899 5899 5901 5904 5907 5907 5907 5908 5908
5913 5913 5913 5912 5912 5912 5913 5912 5912 5912 5912 5911 5910 5911 5908 5904 5900 5899 5900 5898 5893 5890 5891 5890 5889 5887 5883 5885 5887 5888 5889 5889 5890 5893 5893 5893 5895 5897 5900 5902 5904 5904 5906 5907
5910 5911 5910 5910 5910 5911 5910 5910 5911 5913 5912 5910 5911 5911 5906 5900 5899 5897 5896 5897 5895 5891 5890 5885 5884 5878 5881 5883 5882 5883 5884 5883 5883 5887 5889 5891 5892 5894 5896 5898 5900 5901 5901 5903
5908 5908 5908 5909 5908 5908 5909 5909 5911 5912 5911 5911 5910 5909 5903 5898 5898 5896 5894 5893 5891 5888 5888 5883 5878 5880 5879 5879 5876 5878 5879 5880 5881 5881 5883 5888 5890 5890 5893 5895 5895 5897 5898 5898
5907 5907 5907 5907 5906 5906 5908 5909 5910 5910 5909 5909 5908 5907 5906 5901 5898 5894 5891 5890 5890 5887 5887 5885 5880 5876 5873 5870 5869 5871 5869 5870 5874 5878 5878 5884 5886 5885 5888 5891 5892 5893 5894 5894
5905 5905 5905 5904 5904 5904 5906 5907 5908 5908 5908 5908 5906 5907 5906 5904 5902 5896 5891 5889 5887 5886 5886 5883 5880 5877 5869 5865 5861 5859 5855 5855 5864 5869 5874 5880 5883 5885 5885 5886 5888 5889 5888 5890
5904 5903 5903 5903 5903 5902 5903 5906 5907 5908 5907 5906 5905 5906 5904 5902 5899 5896 5893 5889 5883 5885 5884 5883 5879 5873 5869 5862 5856 5850 5850 5849 5853 5859 5870 5876 5880 5882 5883 5883 5884 5885 5885 5887
5902 5903 5903 5903 5902 5902 5903 5905 5905 5905 5904 5904 5904 5902 5902 5899 5898 5895 5892 5888 5887 5886 5883 5879 5878 5874 5869 5863 5853 5847 5842 5841 5849 5855 5867 5872 5875 5878 5879 5880 5882 5883 5885 5885
5901 5902 5902 5902 5901 5902 5902 5903 5904 5903 5903 5903 5902 5900 5900 5897 5895 5894 5893 5887 5884 5883 5880 5878 5875 5872 5866 5863 5856 5849 5843 5850 5856 5858 5863 5864 5872 5875 5876 5878 5879 5880 5882 5882
5901 5901 5901 5901 5901 5900 5900 5901 5902 5902 5902 5900 5900 5897 5897 5895 5893 5892 5892 5891 5887 5883 5880 5877 5874 5871 5866 5861 5859 5856 5850 5852 5855 5854 5860 5863 5867 5869 5871 5874 5876 5877 5878 5878
5899 5900 5900 5900 5901 5899 5899 5899 5900 5900 5899 5897 5896 5896 5895 5892 5891 5890 5890 5890 5886 5883 5879 5876 5874 5871 5868 5865 5860 5859 5855 5855 5857 5858 5860 5862 5862 5865 5867 5870 5872 5873 5875 5876
5895 5896 5897 5898 5898 5898 5897 5897 5897 5896 5897 5895 5893 5893 5892 5890 5888 5888 5889 5886 5882 5880 5878 5876 5874 5872 5871 5867 5864 5862 5859 5857 5856 5857 5858 5861 5862 5861 5864 5867 5869 5869 5871 5873
5893 5894 5895 5894 5895 5894 5894 5894 5894 5893 5892 5893 5891 5891 5889 5887 5885 5885 5885 5883 5880 5879 5877 5874 5872 5870 5867 5869 5866 5865 5862 5859 5860 5857 5859 5860 5858 5858 5861 5864 5864 5864 5866 5868
5890 5890 5890 5890 5890 5890 5890 5890 5889 5887 5888 5888 5889 5887 5884 5883 5882 5882 5879 5880 5877 5878 5877 5873 5871 5868 5865 5864 5865 5864 5861 5858 5859 5858 5857 5857 5859 5858 5860 5859 5860 5860 5860 5863
5888 5886 5885 5885 5885 5885 5886 5885 5884 5884 5886 5884 5885 5883 5881 5879 5878 5877 5875 5874 5873 5871 5871 5871 5868 5865 5863 5861 5859 5858 5859 5859 5856 5855 5855 5857 5857 5855 5855 5855 5856 5856 5856 5857
5884 5882 5881 5881 5881 5882 5881 5878 5881 5880 5881 5881 5880 5878 5877 5875 5873 5869 5869 5869 5870 5867 5866 5863 5864 5862 5861 5859 5856 5854 5855 5854 5855 5853 5850 5851 5853 5851 5850 5848 5851 5853 5852 5852
5876 5876 5877 5877 5877 5878 5876 5876 5875 5875 5874 5873 5871 5871 5869 5868 5868 5867 5864 5863 5862 5861 5861 5859 5857 5857 5858 5855 5854 5853 5851 5849 5848 5849 5848 5847 5845 5846 5844 5843 5845 5847 5847 5848
5869 5870 5871 5872 5872 5873 5872 5871 5871 5869 5869 5868 5865 5864 5864 5863 5863 5862 5860 5856 5854 5854 5853 5853 5852 5851 5849 5850 5848 5846 5846 5843 5840 5841 5841 5838 5834 5837 5837 5836 5835 5838 5840 5840
5863 5865 5866 5866 5867 5868 5868 5867 5864 5862 5861 5861 5860 5859 5857 5856 5855 5854 5852 5851 5849 5848 5846 5846 5845 5843 5840 5840 5841 5841 5839 5837 5835 5833 5832 5829 5827 5827 5829 5831 5826 5824 5826 5830
5857 5858 5860 5860 5860 5861 5863 5860 5858 5856 5855 5855 5854 5852 5851 5849 5849 5847 5845 5844 5844 5841 5839 5836 5834 5833 5832 5830 5830 5829 5828 5829 5829 5828 5825 5820 5817 5818 5820 5821 5819 5816 5818 5819
5851 5852 5853 5853 5852 5852 5852 5853 5852 5852 5853 5849 5848 5845 5843 5841 5840 5837 5835 5833 5831 5829 5828 5827 5825 5823 5822 5820 5818 5816 5817 5818 5819 5818 5817 5815 5809 5805 5804 5805 5800 5797 5780 5809
5844 5845 5845 5845 5845 5845 5846 5845 5844 5843 5841 5840 5840 5838 5834 5831 5827 5825 5823 5821 5819 5818 5817 5816 5815 5814 5811 5810 5809 5808 5807 5805 5805 5807 5806 5805 5803 5799 5795 5796 5792 5789 5782 5774
5837 5838 5838 5839 5838 5838 5837 5836 5835 5834 5833 5832 5831 5828 5825 5822 5818 5814 5810 5808 5805 5803 5801 5800 5800 5800 5800 5797 5795 5794 5793 5792 5792 5792 5794 5794 5792 5789 5787 5787 5782 5780 5782 5780
5831 5831 5831 5831 5831 5830 5828 5827 5827 5826 5826 5825 5823 5821 5820 5817 5812 5808 5804 5800 5796 5793 5791 5790 5787 5785 5784 5783 5782 5780 5779 5779 5778 5778 5779 5779 5779 5777 5776 5775 5774 5771 5771 5777
5824 5824 5823 5822 5822 5821 5820 5819 5818 5817 5815 5813 5812 5810 5808 5804 5801 5798 5796 5793 5790 5786 5783 5780 5778 5775 5772 5770 5769 5767 5765 5763 5763 5763 5762 5764 5764 5765 5764 5763 5761 5762 5760 5768
5815 5814 5814 5813 5813 5812 5811 5809 5808 5807 5805 5803 5802 5799 5797 5796 5793 5789 5785 5782 5779 5777 5774 5771 5767 5765 5763 5761 5758 5755 5751 5749 5748 5748 5747 5747 5747 5750 5752 5753 5751 5752 5753 5758
Wind_Speed
8 11 10 11 12 11 9 6 3 1 7 7 12 18 23 23 21 22 26 14 9 9 9 7 2 17 10 12 11 12 17 18 15 17 16 15 12 13 15 14 13 12 10 10
9 9 11 13 14 11 6 9 8 5 10 10 13 17 11 16 17 17 17 15 7 8 8 10 4 8 10 8 13 13 17 18 18 18 17 15 15 16 16 15 14 16 12 13
10 12 12 12 14 12 11 8 7 7 7 8 14 12 16 21 19 21 16 17 17 15 16 16 6 11 7 4 9 16 22 26 25 21 19 19 21 18 17 18 17 17 16 17
13 13 13 13 11 10 10 8 3 1 6 7 10 10 18 14 18 22 21 19 19 20 16 15 9 5 5 8 15 14 21 26 30 27 24 24 21 15 16 18 17 17 19 17
9 9 10 14 11 9 8 4 5 6 3 3 6 7 3 10 21 30 24 19 18 19 15 13 5 4 7 13 16 21 18 25 35 33 28 25 20 18 17 16 15 17 18 18
9 9 9 8 7 9 9 9 10 3 2 5 11 5 6 10 15 28 31 23 18 17 16 15 13 13 14 11 11 23 35 32 40 37 29 24 19 18 19 17 17 17 20 22
8 5 4 3 3 3 9 17 8 5 3 8 13 11 11 14 18 22 15 18 13 11 15 12 13 14 16 13 8 10 24 34 35 28 30 25 22 21 20 18 15 14 11 19
9 7 7 7 3 4 18 13 8 10 6 9 12 16 11 17 17 23 24 23 16 5 12 9 9 14 16 18 13 9 8 24 40 32 30 28 21 23 21 17 17 10 14 18
12 11 10 9 9 6 9 4 6 12 10 10 10 16 16 15 20 15 21 27 18 4 12 10 9 12 15 19 19 21 14 6 15 18 23 37 25 21 20 20 19 17 13 18
10 11 9 8 7 7 9 11 10 11 14 15 14 18 17 20 21 21 26 27 15 6 13 14 7 8 13 16 15 14 16 15 10 6 19 24 18 18 20 21 20 17 15 17
11 8 7 11 11 14 12 13 16 14 15 18 23 19 22 21 25 27 28 21 17 17 14 16 14 9 8 13 14 12 10 8 5 7 1 8 15 19 20 20 18 15 13 14
8 10 11 17 13 15 18 20 18 22 22 18 23 24 22 28 29 26 29 18 12 14 15 15 19 17 11 8 10 11 9 4 5 3 4 7 9 18 18 20 17 14 15 14
15 11 12 15 21 23 22 23 22 20 16 19 23 25 29 27 27 29 20 14 7 10 11 12 12 14 15 8 7 8 6 4 3 4 4 6 5 8 12 16 20 18 18 19
18 15 19 20 19 19 18 18 18 21 26 24 21 22 23 25 26 22 16 14 12 10 12 11 10 12 14 15 10 9 9 11 9 7 2 4 6 9 11 12 16 19 21 22
13 20 14 13 14 14 14 17 22 26 22 20 19 20 22 24 22 17 15 13 14 15 13 15 16 15 17 16 14 12 9 9 11 9 8 7 8 7 8 14 17 18 21 24
12 15 16 15 17 14 16 23 19 23 22 21 23 23 20 19 20 21 20 16 10 11 17 24 25 17 14 17 17 13 16 15 13 12 13 15 13 12 9 9 11 19 18 21
23 19 19 19 20 18 22 22 23 25 27 28 28 26 24 23 21 20 19 19 18 21 23 26 29 25 19 16 16 18 17 19 18 18 17 19 17 18 15 16 15 16 20 23
33 28 21 21 22 22 23 25 28 29 29 27 27 25 23 20 18 18 20 23 25 26 29 30 30 28 25 19 18 21 20 21 24 23 25 27 28 23 24 21 18 20 20 22
31 27 25 24 23 25 25 27 30 29 28 23 22 23 24 24 23 23 26 27 29 30 30 30 28 26 27 27 23 21 22 22 25 28 30 33 37 34 30 29 25 25 25 27
29 29 27 27 28 28 24 26 25 24 24 23 24 25 22 24 24 26 27 28 30 33 34 33 32 30 30 30 29 26 26 28 29 29 32 38 40 40 38 39 39 30 29 30
27 27 28 28 28 27 23 20 21 24 23 22 23 24 26 28 30 33 35 37 38 37 36 33 33 33 33 32 33 34 33 33 33 35 36 36 40 44 46 43 48 41 27 39
27 27 26 26 24 23 21 23 24 23 21 19 19 22 26 30 34 36 38 39 40 40 39 38 38 37 39 40 40 40 40 41 39 37 40 40 41 42 45 44 49 48 54 54
27 26 26 25 26 26 26 25 23 23 22 22 24 28 31 33 37 39 40 40 40 41 42 42 41 39 38 42 45 46 46 46 46 44 42 43 43 44 46 45 49 51 52 49
25 26 27 29 29 30 30 28 25 23 23 26 29 31 30 32 34 35 35 36 37 38 38 39 40 41 39 37 37 39 43 47 51 50 48 46 45 46 46 47 48 51 49 47
28 29 30 31 31 28 27 26 26 26 29 32 32 32 31 33 34 32 31 30 32 34 36 37 39 37 38 41 39 37 38 40 42 50 54 52 50 49 48 48 50 49 50 44
29 32 32 33 31 29 29 29 29 30 34 35 36 36 35 33 31 32 33 35 36 37 37 37 39 40 39 36 37 36 36 36 36 39 46 52 55 51 50 50 51 51 49 43
Wind_Direction
225 224 239 242 246 254 272 214 205 244 274 313 348 345 326 331 341 360 3 350 329 318 357 33 270 225 224 250 233 241 242 225 223 217 222 233 234 233 240 243 246 247 243 238
230 245 253 260 269 272 233 185 169 258 308 336 348 332 330 320 333 333 354 354 340 328 316 282 346 258 217 244 255 256 251 246 236 224 216 222 237 236 243 243 241 241 243 241
253 259 262 263 267 244 210 191 227 306 277 23 6 1 311 310 319 323 332 336 333 323 332 305 304 335 245 309 260 245 247 242 238 230 224 222 226 227 235 246 243 234 237 244
255 264 259 253 228 217 213 225 302 238 54 27 16 16 343 334 329 329 329 319 335 324 334 341 23 40 189 256 264 250 247 251 248 235 227 228 225 226 235 241 245 243 243 244
259 264 253 248 231 217 194 234 168 81 110 50 8 345 341 329 356 3 339 318 336 328 334 347 308 333 319 298 292 242 235 222 240 238 231 232 225 222 228 234 240 246 248 231
224 238 237 225 223 235 214 197 156 166 252 3 1 17 13 3 25 23 33 25 350 334 337 348 349 345 325 319 276 240 231 278 219 228 231 231 230 231 230 240 253 283 262 226
181 171 152 189 205 226 176 167 182 205 264 341 358 351 28 5 7 32 28 9 325 313 329 344 353 356 346 338 341 322 277 250 201 215 228 227 228 230 233 240 255 277 247 218
186 176 158 116 126 147 159 199 218 250 308 324 328 323 340 351 22 56 35 22 39 11 307 328 5 2 350 356 17 352 328 183 213 211 217 219 221 228 234 239 248 244 257 224
187 190 174 158 119 138 180 226 254 268 274 288 300 307 319 337 358 359 353 4 348 352 316 311 4 11 7 12 25 53 93 165 211 237 228 220 219 228 236 241 246 247 264 232
198 186 188 234 188 207 220 222 243 271 277 277 285 300 305 315 317 326 338 354 14 17 334 323 339 6 7 16 21 53 80 85 72 184 224 190 210 227 234 240 244 246 256 236
209 206 207 233 254 255 240 251 245 261 268 275 282 283 300 308 316 325 342 359 357 1 354 337 330 336 1 8 13 37 60 91 87 98 193 209 218 223 237 242 242 241 246 220
256 250 263 236 252 255 274 273 280 289 270 277 295 286 292 300 312 336 348 356 356 7 4 344 340 336 340 350 2 4 14 33 34 174 147 267 260 209 228 248 240 234 239 233
280 269 266 253 248 259 271 271 278 294 287 296 290 293 299 301 312 330 337 359 4 345 12 358 345 340 330 325 321 327 336 337 187 223 247 246 301 261 234 242 239 238 235 233
284 293 276 267 264 273 280 275 267 269 287 290 301 296 298 295 301 314 324 347 327 337 320 329 339 337 320 318 303 285 311 331 339 320 302 257 274 239 238 240 238 237 239 239
276 280 267 256 262 272 275 265 257 275 285 293 297 298 300 292 298 296 312 316 331 312 295 308 317 331 321 314 308 302 287 279 292 307 303 282 261 243 260 245 236 230 236 241
264 262 261 262 268 272 271 267 271 277 284 287 295 302 302 293 293 305 315 314 275 323 310 306 310 317 308 297 299 291 276 266 260 265 267 267 254 250 238 246 240 241 238 243
282 270 248 253 267 268 265 272 281 285 292 298 301 306 304 303 305 307 304 303 298 294 302 303 305 306 300 295 282 281 275 268 258 252 256 264 261 256 250 243 243 246 242 234
274 270 258 253 259 261 268 275 281 285 288 293 298 300 300 299 295 297 295 298 296 298 299 297 295 294 295 285 274 273 270 270 271 263 259 254 256 244 251 244 238 243 245 245
266 266 266 263 261 266 275 277 283 288 292 297 297 295 294 294 296 293 291 291 293 290 288 288 290 295 292 287 280 270 270 274 271 271 268 262 258 254 246 247 241 237 238 242
264 265 266 270 272 275 276 279 284 285 287 294 290 289 288 289 290 286 285 284 280 279 280 284 288 287 283 280 279 276 271 265 261 260 265 269 268 265 257 246 237 241 248 246
260 262 267 271 277 280 282 282 278 282 285 276 280 283 284 282 280 277 276 276 277 280 285 288 288 287 284 280 279 277 272 267 265 263 262 262 267 269 271 271 274 216 273 240
265 267 271 274 280 281 284 283 284 285 282 280 281 285 289 291 291 290 289 289 291 293 294 292 287 283 281 280 277 273 271 269 265 262 262 261 263 265 268 270 268 267 272 278
261 268 275 278 283 287 286 285 286 283 282 283 286 288 292 295 299 299 296 295 294 294 294 292 291 286 279 274 271 268 265 263 263 262 260 260 260 261 264 266 268 269 270 275
265 268 272 278 284 286 283 281 278 276 276 277 279 284 289 292 290 289 290 291 292 291 291 293 294 295 293 289 284 278 272 266 264 261 259 258 258 259 260 263 264 268 271 272
270 275 278 281 283 281 275 271 271 274 281 287 293 297 299 299 302 299 295 292 290 291 293 295 297 293 289 292 290 290 288 280 268 263 262 258 256 257 258 260 264 266 272 275
272 274 274 276 277 274 273 273 276 282 289 294 297 297 297 299 294 292 291 292 293 296 297 296 294 292 291 291 288 289 287 286 282 269 262 259 257 254 255 257 261 265 268 272